| time (UTC) | temp F | wind direction | speed knots | gust knots | rain 1hr in | rain 24hr in | rain mn in | humidity % | barometer mb |
| 20260510145558 | 70 | 96 | 0.0 | 0.0 | 0.00 | 0.00 | 0.00 | 73 | 1012.7 |
| 20260510145055 | 70 | 134 | 0.0 | 0.0 | 0.00 | 0.00 | 0.00 | 74 | 1012.6 |
| 20260510144551 | 70 | 135 | 0.0 | 0.0 | 0.00 | 0.00 | 0.00 | 75 | 1012.5 |
| 20260510144047 | 70 | 76 | 0.0 | 0.0 | 0.00 | 0.00 | 0.00 | 75 | 1012.6 |
| 20260510143542 | 70 | 140 | 0.0 | 0.0 | 0.00 | 0.00 | 0.00 | 75 | 1012.4 |
| 20260510143039 | 70 | 95 | 0.0 | 0.0 | 0.00 | 0.00 | 0.00 | 75 | 1012.3 |
| 20260510142536 | 69 | 135 | 0.0 | 0.0 | 0.00 | 0.00 | 0.00 | 75 | 1012.3 |
| 20260510142033 | 69 | 139 | 0.0 | 0.0 | 0.00 | 0.00 | 0.00 | 77 | 1012.3 |
| 20260510141529 | 70 | 125 | 0.0 | 0.0 | 0.00 | 0.00 | 0.00 | 75 | 1012.4 |
| 20260510141027 | 69 | 139 | 0.0 | 0.0 | 0.00 | 0.00 | 0.00 | 77 | 1012.4 |
| 20260510140523 | 68 | 147 | 0.0 | 0.0 | 0.00 | 0.00 | 0.00 | 78 | 1012.6 |
| 20260510140023 | 67 | 135 | 0.0 | 0.0 | 0.00 | 0.00 | 0.00 | 80 | 1012.7 |
| 20260510135519 | 66 | 137 | 0.0 | 0.0 | 0.00 | 0.00 | 0.00 | 81 | 1012.5 |
| 20260510135015 | 66 | 137 | 0.0 | 0.0 | 0.00 | 0.00 | 0.00 | 82 | 1012.6 |
| 20260510134513 | 66 | 137 | 0.0 | 0.0 | 0.00 | 0.00 | 0.00 | 82 | 1012.6 |
| 20260510134009 | 66 | 130 | 0.0 | 0.0 | 0.00 | 0.00 | 0.00 | 82 | 1012.4 |
| 20260510133505 | 66 | 130 | 0.0 | 0.0 | 0.00 | 0.00 | 0.00 | 82 | 1012.3 |
| 20260510133001 | 66 | 137 | 0.0 | 0.0 | 0.00 | 0.00 | 0.00 | 81 | 1012.4 |
| 20260510132458 | 65 | 152 | 0.0 | 0.0 | 0.00 | 0.00 | 0.00 | 80 | 1012.5 |
| 20260510131955 | 65 | 141 | 0.0 | 0.0 | 0.00 | 0.00 | 0.00 | 81 | 1012.5 |
| 20260510131453 | 65 | 153 | 0.0 | 0.0 | 0.00 | 0.00 | 0.00 | 81 | 1012.4 |
| 20260510130950 | 64 | 146 | 0.0 | 0.0 | 0.00 | 0.00 | 0.00 | 82 | 1012.6 |
| 20260510130446 | 64 | 145 | 0.0 | 0.0 | 0.00 | 0.00 | 0.00 | 83 | 1012.5 |
| 20260510125943 | 62 | 164 | 0.0 | 0.0 | 0.00 | 0.00 | 0.00 | 86 | 1013.1 |
| 20260510125439 | 62 | 116 | 0.0 | 0.0 | 0.00 | 0.00 | 0.00 | 89 | 1012.9 |
| 20260510124936 | 61 | 143 | 0.0 | 0.0 | 0.00 | 0.00 | 0.00 | 91 | 1012.9 |
| 20260510124432 | 60 | 147 | 0.0 | 0.0 | 0.00 | 0.00 | 0.00 | 93 | 1012.8 |
| 20260510123929 | 60 | 129 | 0.0 | 0.0 | 0.00 | 0.00 | 0.00 | 96 | 1013.0 |
| 20260510123425 | 59 | 156 | 0.0 | 0.0 | 0.00 | 0.00 | 0.00 | 98 | 1013.0 |
| 20260510122921 | 59 | 157 | 0.0 | 0.0 | 0.00 | 0.00 | 0.00 | 98 | 1013.0 |
| 20260510122416 | 58 | 157 | 0.0 | 0.0 | 0.00 | 0.00 | 0.00 | 99 | 1012.8 |
| 20260510121913 | 58 | 157 | 0.0 | 0.0 | 0.00 | 0.00 | 0.00 | 99 | 1012.8 |
| 20260510121410 | 57 | 157 | 0.0 | 0.0 | 0.00 | 0.00 | 0.00 | 99 | 1012.9 |
| 20260510120908 | 57 | 157 | 0.0 | 0.0 | 0.00 | 0.00 | 0.00 | 99 | 1012.6 |
| 20260510120405 | 56 | 157 | 0.0 | 0.0 | 0.00 | 0.00 | 0.00 | 99 | 1012.9 |
| 20260510115900 | 56 | 156 | 0.0 | 0.0 | 0.00 | 0.00 | 0.00 | 99 | 1012.8 |
| 20260510115352 | 55 | 156 | 0.0 | 0.0 | 0.00 | 0.00 | 0.00 | 99 | 1012.4 |
| 20260510114848 | 55 | 156 | 0.0 | 0.0 | 0.00 | 0.00 | 0.00 | 99 | 1012.6 |
| 20260510114346 | 54 | 156 | 0.0 | 0.0 | 0.00 | 0.00 | 0.00 | 99 | 1012.4 |
| 20260510113846 | 54 | 156 | 0.0 | 0.0 | 0.00 | 0.00 | 0.00 | 99 | 1012.4 |
| 20260510113342 | 53 | 156 | 0.0 | 0.0 | 0.00 | 0.00 | 0.00 | 99 | 1012.3 |
| 20260510112839 | 53 | 156 | 0.0 | 0.0 | 0.00 | 0.00 | 0.00 | 99 | 1012.3 |
| 20260510112336 | 52 | 157 | 0.0 | 0.0 | 0.00 | 0.00 | 0.00 | 99 | 1012.1 |
| 20260510111832 | 52 | 156 | 0.0 | 0.0 | 0.00 | 0.00 | 0.00 | 99 | 1012.3 |
| 20260510111329 | 52 | 157 | 0.0 | 0.0 | 0.00 | 0.00 | 0.00 | 99 | 1012.1 |
| 20260510110828 | 51 | 157 | 0.0 | 0.0 | 0.00 | 0.00 | 0.00 | 99 | 1012.1 |
| 20260510110326 | 51 | 157 | 0.0 | 0.0 | 0.00 | 0.00 | 0.00 | 99 | 1012.0 |
| 20260510105822 | 51 | 158 | 0.0 | 0.0 | 0.00 | 0.00 | 0.00 | 99 | 1011.6 |
| 20260510105322 | 50 | 149 | 0.0 | 0.0 | 0.00 | 0.00 | 0.00 | 99 | 1011.7 |
| 20260510104818 | 50 | 152 | 0.0 | 0.0 | 0.00 | 0.00 | 0.00 | 99 | 1011.7 |
| 20260510104316 | 50 | 152 | 0.0 | 0.0 | 0.00 | 0.00 | 0.00 | 99 | 1011.6 |
| 20260510103812 | 50 | 152 | 0.0 | 0.0 | 0.00 | 0.00 | 0.00 | 99 | 1011.3 |
| 20260510103309 | 50 | 150 | 0.0 | 0.0 | 0.00 | 0.00 | 0.00 | 99 | 1011.2 |
| 20260510102804 | 50 | 150 | 0.0 | 0.0 | 0.00 | 0.00 | 0.00 | 99 | 1011.1 |
| 20260510102300 | 50 | 150 | 0.0 | 0.0 | 0.00 | 0.00 | 0.00 | 99 | 1011.2 |
| 20260510101757 | 50 | 151 | 0.0 | 0.0 | 0.00 | 0.00 | 0.00 | 99 | 1011.2 |
| 20260510101256 | 50 | 149 | 0.0 | 0.0 | 0.00 | 0.00 | 0.00 | 99 | 1011.0 |
| 20260510100751 | 50 | 154 | 0.0 | 0.0 | 0.00 | 0.00 | 0.00 | 99 | 1010.9 |
| 20260510100249 | 50 | 139 | 0.0 | 0.0 | 0.00 | 0.00 | 0.00 | 99 | 1011.2 |
| 20260510095744 | 50 | 138 | 0.0 | 0.0 | 0.00 | 0.00 | 0.00 | 99 | 1011.2 |
| 20260510095240 | 50 | 138 | 0.0 | 0.0 | 0.00 | 0.00 | 0.00 | 99 | 1011.0 |
| 20260510094739 | 50 | 142 | 0.0 | 0.0 | 0.00 | 0.00 | 0.00 | 99 | 1010.9 |
| 20260510094235 | 50 | 148 | 0.0 | 0.0 | 0.00 | 0.00 | 0.00 | 99 | 1011.1 |
| 20260510093730 | 50 | 149 | 0.0 | 0.0 | 0.00 | 0.00 | 0.00 | 99 | 1011.0 |
| 20260510093228 | 50 | 148 | 0.0 | 0.0 | 0.00 | 0.00 | 0.00 | 99 | 1011.1 |
| 20260510092724 | 50 | 144 | 0.0 | 0.0 | 0.00 | 0.00 | 0.00 | 99 | 1011.1 |
| 20260510092220 | 50 | 140 | 0.0 | 0.0 | 0.00 | 0.00 | 0.00 | 99 | 1010.9 |
| 20260510091716 | 51 | 139 | 0.0 | 0.0 | 0.00 | 0.00 | 0.00 | 99 | 1011.1 |
| 20260510091213 | 50 | 147 | 0.0 | 0.0 | 0.00 | 0.00 | 0.00 | 99 | 1011.0 |
| 20260510090709 | 51 | 144 | 0.0 | 0.0 | 0.00 | 0.00 | 0.00 | 99 | 1010.8 |
| 20260510090206 | 51 | 148 | 0.0 | 0.0 | 0.00 | 0.00 | 0.00 | 99 | 1010.9 |
| 20260510085701 | 51 | 147 | 0.0 | 0.0 | 0.00 | 0.00 | 0.00 | 99 | 1010.9 |
| 20260510085156 | 51 | 147 | 0.0 | 0.0 | 0.00 | 0.00 | 0.00 | 99 | 1010.5 |
| 20260510084653 | 51 | 147 | 0.0 | 0.0 | 0.00 | 0.00 | 0.00 | 99 | 1010.5 |
| 20260510084149 | 51 | 144 | 0.0 | 0.0 | 0.00 | 0.00 | 0.00 | 99 | 1010.6 |
| 20260510083646 | 51 | 145 | 0.0 | 0.0 | 0.00 | 0.00 | 0.00 | 99 | 1010.8 |
| 20260510083143 | 51 | 145 | 0.0 | 0.0 | 0.00 | 0.00 | 0.00 | 99 | 1010.7 |
| 20260510082639 | 51 | 147 | 0.0 | 0.0 | 0.00 | 0.00 | 0.00 | 99 | 1010.5 |
| 20260510082135 | 51 | 145 | 0.0 | 0.0 | 0.00 | 0.00 | 0.00 | 99 | 1010.3 |
| 20260510081630 | 51 | 145 | 0.0 | 0.0 | 0.00 | 0.00 | 0.00 | 99 | 1010.0 |
| 20260510081126 | 51 | 150 | 0.0 | 0.0 | 0.00 | 0.00 | 0.00 | 99 | 1010.1 |
| 20260510080625 | 51 | 137 | 0.0 | 0.0 | 0.00 | 0.00 | 0.00 | 99 | 1010.0 |
| 20260510080122 | 51 | 141 | 0.0 | 0.0 | 0.00 | 0.00 | 0.00 | 99 | 1010.0 |
| 20260510075620 | 51 | 148 | 0.0 | 0.0 | 0.00 | 0.00 | 0.00 | 99 | 1009.8 |
| 20260510075116 | 51 | 145 | 0.0 | 0.0 | 0.00 | 0.00 | 0.00 | 99 | 1009.7 |
| 20260510074613 | 51 | 144 | 0.0 | 0.0 | 0.00 | 0.00 | 0.00 | 99 | 1009.8 |
| 20260510074108 | 51 | 139 | 0.0 | 0.0 | 0.00 | 0.00 | 0.00 | 99 | 1009.8 |
| 20260510073600 | 51 | 144 | 0.0 | 0.0 | 0.00 | 0.00 | 0.00 | 99 | 1009.8 |
| 20260510073057 | 51 | 148 | 0.0 | 0.0 | 0.00 | 0.00 | 0.00 | 99 | 1009.9 |
| 20260510072554 | 51 | 148 | 0.0 | 0.0 | 0.00 | 0.00 | 0.00 | 99 | 1009.9 |
| 20260510072049 | 52 | 144 | 0.0 | 0.0 | 0.00 | 0.00 | 0.00 | 99 | 1009.7 |
| 20260510071545 | 52 | 143 | 0.0 | 0.0 | 0.00 | 0.00 | 0.00 | 99 | 1009.7 |
| 20260510071044 | 52 | 140 | 0.0 | 0.0 | 0.00 | 0.00 | 0.00 | 99 | 1009.7 |
| 20260510070540 | 52 | 147 | 0.0 | 0.0 | 0.00 | 0.00 | 0.00 | 99 | 1009.7 |
| 20260510070038 | 52 | 147 | 0.0 | 0.0 | 0.00 | 0.00 | 0.00 | 99 | 1009.7 |
| 20260510065533 | 52 | 147 | 0.0 | 0.0 | 0.00 | 0.00 | 0.00 | 99 | 1009.7 |
| 20260510065029 | 53 | 146 | 0.0 | 0.0 | 0.00 | 0.00 | 0.00 | 99 | 1009.6 |
| 20260510064526 | 52 | 147 | 0.0 | 0.0 | 0.00 | 0.00 | 0.00 | 99 | 1009.6 |
| 20260510064023 | 52 | 147 | 0.0 | 0.0 | 0.00 | 0.00 | 0.00 | 99 | 1009.6 |
| 20260510063520 | 53 | 148 | 0.0 | 0.0 | 0.00 | 0.00 | 0.00 | 99 | 1009.4 |
| 20260510063017 | 53 | 147 | 0.0 | 0.0 | 0.00 | 0.00 | 0.00 | 99 | 1009.6 |
| 20260510062513 | 53 | 147 | 0.0 | 0.0 | 0.00 | 0.00 | 0.00 | 99 | 1009.4 |
| 20260510062008 | 53 | 146 | 0.0 | 0.0 | 0.00 | 0.00 | 0.00 | 98 | 1009.7 |
| 20260510061505 | 53 | 144 | 0.0 | 0.0 | 0.00 | 0.00 | 0.00 | 98 | 1009.5 |
| 20260510061001 | 53 | 144 | 0.0 | 0.0 | 0.00 | 0.00 | 0.00 | 98 | 1009.6 |
| 20260510060459 | 53 | 144 | 0.0 | 0.0 | 0.00 | 0.00 | 0.00 | 98 | 1009.5 |
| 20260510055954 | 53 | 146 | 0.0 | 0.0 | 0.00 | 0.00 | 0.00 | 98 | 1009.6 |
| 20260510055450 | 53 | 148 | 0.0 | 0.0 | 0.00 | 0.00 | 0.00 | 98 | 1009.5 |
| 20260510054949 | 53 | 140 | 0.0 | 0.0 | 0.00 | 0.00 | 0.00 | 98 | 1009.5 |
| 20260510054443 | 54 | 151 | 0.0 | 0.0 | 0.00 | 0.00 | 0.00 | 98 | 1009.7 |
| 20260510053939 | 54 | 151 | 0.0 | 0.0 | 0.00 | 0.00 | 0.00 | 98 | 1009.3 |
| 20260510053434 | 54 | 147 | 0.0 | 0.0 | 0.00 | 0.00 | 0.00 | 98 | 1009.6 |
| 20260510052931 | 54 | 146 | 0.0 | 0.0 | 0.00 | 0.00 | 0.00 | 98 | 1009.8 |
| 20260510052426 | 54 | 146 | 0.0 | 0.0 | 0.00 | 0.00 | 0.00 | 98 | 1009.6 |
| 20260510051923 | 54 | 145 | 0.0 | 0.0 | 0.00 | 0.00 | 0.00 | 98 | 1009.6 |
| 20260510051420 | 54 | 146 | 0.0 | 0.0 | 0.00 | 0.00 | 0.00 | 98 | 1009.7 |
| 20260510050916 | 54 | 144 | 0.0 | 0.0 | 0.00 | 0.00 | 0.00 | 98 | 1009.5 |
| 20260510050412 | 55 | 141 | 0.0 | 0.0 | 0.00 | 0.00 | 0.00 | 98 | 1009.6 |
| 20260510045910 | 55 | 142 | 0.0 | 0.0 | 0.00 | 0.00 | 0.00 | 98 | 1009.7 |
| 20260510045407 | 55 | 142 | 0.0 | 0.0 | 0.00 | 0.00 | 0.00 | 98 | 1009.9 |
| 20260510044904 | 55 | 145 | 0.0 | 0.0 | 0.00 | 0.00 | 0.00 | 98 | 1010.0 |
| 20260510044401 | 55 | 145 | 0.0 | 0.0 | 0.00 | 0.00 | 0.00 | 98 | 1009.9 |
| 20260510043857 | 55 | 145 | 0.0 | 0.0 | 0.00 | 0.00 | 0.00 | 97 | 1009.8 |
| 20260510043353 | 55 | 146 | 0.0 | 0.0 | 0.00 | 0.00 | 0.00 | 97 | 1009.9 |
| 20260510042851 | 55 | 145 | 0.0 | 0.0 | 0.00 | 0.00 | 0.00 | 97 | 1009.7 |
| 20260510042347 | 55 | 144 | 0.0 | 0.0 | 0.00 | 0.00 | 0.00 | 97 | 1009.8 |
| 20260510041843 | 55 | 144 | 0.0 | 0.0 | 0.00 | 0.00 | 0.00 | 97 | 1009.9 |
| 20260510041341 | 55 | 143 | 0.0 | 0.0 | 0.00 | 0.00 | 0.00 | 97 | 1009.6 |
| 20260510040838 | 56 | 144 | 0.0 | 0.0 | 0.00 | 0.00 | 0.00 | 97 | 1009.7 |
| 20260510040335 | 56 | 144 | 0.0 | 0.0 | 0.00 | 0.00 | 0.00 | 97 | 1009.7 |
| 20260510035830 | 56 | 145 | 0.0 | 0.0 | 0.00 | 0.05 | 0.05 | 97 | 1009.7 |
| 20260510035326 | 56 | 144 | 0.0 | 0.0 | 0.00 | 0.05 | 0.05 | 97 | 1009.6 |
| 20260510034822 | 56 | 144 | 0.0 | 0.0 | 0.00 | 0.05 | 0.05 | 96 | 1009.6 |
| 20260510034319 | 56 | 144 | 0.0 | 0.0 | 0.00 | 0.05 | 0.05 | 96 | 1009.6 |
| 20260510033815 | 56 | 144 | 0.0 | 0.0 | 0.00 | 0.05 | 0.05 | 96 | 1009.6 |
| 20260510033313 | 56 | 144 | 0.0 | 0.0 | 0.00 | 0.05 | 0.05 | 96 | 1009.5 |
| 20260510032809 | 56 | 146 | 0.0 | 0.0 | 0.00 | 0.05 | 0.05 | 96 | 1009.6 |
| 20260510032306 | 57 | 144 | 0.0 | 0.0 | 0.00 | 0.05 | 0.05 | 96 | 1009.6 |
| 20260510031801 | 57 | 145 | 0.0 | 0.0 | 0.00 | 0.05 | 0.05 | 96 | 1009.6 |
| 20260510031257 | 57 | 145 | 0.0 | 0.0 | 0.00 | 0.05 | 0.05 | 95 | 1009.2 |
| 20260510030751 | 57 | 145 | 0.0 | 0.0 | 0.00 | 0.05 | 0.05 | 95 | 1009.3 |
| 20260510030248 | 57 | 144 | 0.0 | 0.0 | 0.00 | 0.05 | 0.05 | 95 | 1009.5 |
| 20260510025745 | 58 | 144 | 0.0 | 0.0 | 0.00 | 0.05 | 0.05 | 95 | 1009.4 |
| 20260510025243 | 58 | 144 | 0.0 | 0.0 | 0.00 | 0.05 | 0.05 | 95 | 1009.3 |
| 20260510024739 | 58 | 144 | 0.0 | 0.0 | 0.00 | 0.05 | 0.05 | 94 | 1009.6 |
| 20260510024236 | 58 | 144 | 0.0 | 0.0 | 0.00 | 0.05 | 0.05 | 94 | 1009.4 |
| 20260510023732 | 58 | 144 | 0.0 | 0.0 | 0.00 | 0.05 | 0.05 | 94 | 1009.3 |
| 20260510023229 | 58 | 143 | 0.0 | 0.0 | 0.00 | 0.05 | 0.05 | 94 | 1009.3 |
| 20260510022725 | 58 | 144 | 0.0 | 0.0 | 0.00 | 0.05 | 0.05 | 94 | 1009.5 |
| 20260510022219 | 58 | 145 | 0.0 | 0.0 | 0.00 | 0.05 | 0.05 | 94 | 1009.4 |
| 20260510021714 | 59 | 137 | 0.0 | 0.0 | 0.00 | 0.05 | 0.05 | 94 | 1009.5 |
| 20260510021212 | 58 | 141 | 0.0 | 0.0 | 0.00 | 0.05 | 0.05 | 94 | 1009.3 |
| 20260510020707 | 59 | 137 | 0.0 | 0.0 | 0.00 | 0.05 | 0.05 | 93 | 1009.4 |
| 20260510020202 | 59 | 142 | 0.0 | 0.0 | 0.00 | 0.05 | 0.05 | 93 | 1009.2 |
| 20260510015658 | 59 | 131 | 0.0 | 0.0 | 0.00 | 0.05 | 0.05 | 93 | 1009.3 |
| 20260510015155 | 59 | 130 | 0.0 | 0.0 | 0.00 | 0.05 | 0.05 | 93 | 1009.2 |
| 20260510014655 | 59 | 130 | 0.0 | 0.0 | 0.00 | 0.05 | 0.05 | 93 | 1009.2 |
| 20260510014154 | 59 | 130 | 0.0 | 0.0 | 0.00 | 0.05 | 0.05 | 93 | 1009.2 |
| 20260510013654 | 59 | 130 | 0.0 | 0.0 | 0.00 | 0.05 | 0.05 | 92 | 1009.2 |
| 20260510013150 | 59 | 130 | 0.0 | 0.0 | 0.00 | 0.05 | 0.05 | 92 | 1008.9 |
| 20260510012649 | 59 | 130 | 0.0 | 0.0 | 0.00 | 0.05 | 0.05 | 92 | 1009.4 |
| 20260510012145 | 59 | 130 | 0.0 | 0.0 | 0.00 | 0.05 | 0.05 | 91 | 1009.1 |
| 20260510011640 | 59 | 130 | 0.0 | 0.0 | 0.00 | 0.05 | 0.05 | 91 | 1009.1 |
| 20260510011136 | 60 | 130 | 0.0 | 0.0 | 0.00 | 0.05 | 0.05 | 91 | 1008.9 |
| 20260510010627 | 60 | 130 | 0.0 | 0.0 | 0.00 | 0.05 | 0.05 | 90 | 1008.8 |
| 20260510010125 | 60 | 130 | 0.0 | 0.0 | 0.00 | 0.05 | 0.05 | 90 | 1009.0 |
| 20260510005620 | 60 | 130 | 0.0 | 0.0 | 0.00 | 0.05 | 0.05 | 90 | 1008.8 |
| 20260510005117 | 60 | 130 | 0.0 | 0.0 | 0.00 | 0.05 | 0.05 | 89 | 1009.0 |
| 20260510004616 | 61 | 130 | 0.0 | 0.0 | 0.00 | 0.05 | 0.05 | 89 | 1008.6 |
| 20260510004113 | 61 | 130 | 0.0 | 0.0 | 0.00 | 0.05 | 0.05 | 88 | 1008.7 |
| 20260510003610 | 61 | 130 | 0.0 | 0.0 | 0.00 | 0.05 | 0.05 | 88 | 1008.6 |
| 20260510003106 | 62 | 130 | 0.0 | 0.0 | 0.00 | 0.05 | 0.05 | 87 | 1008.7 |
| 20260510002601 | 62 | 130 | 0.0 | 0.0 | 0.00 | 0.05 | 0.05 | 87 | 1008.5 |
| 20260510002058 | 62 | 130 | 0.0 | 0.0 | 0.00 | 0.05 | 0.05 | 86 | 1008.6 |
| 20260510001555 | 62 | 130 | 0.0 | 0.0 | 0.00 | 0.05 | 0.05 | 86 | 1008.7 |
| 20260510001054 | 62 | 130 | 0.0 | 0.0 | 0.00 | 0.05 | 0.05 | 85 | 1008.6 |
| 20260510000554 | 62 | 130 | 0.0 | 0.0 | 0.00 | 0.05 | 0.05 | 85 | 1008.6 |
| 20260510000051 | 63 | 130 | 0.0 | 0.0 | 0.00 | 0.05 | 0.05 | 84 | 1008.4 |
| 20260509235547 | 64 | 130 | 0.0 | 0.0 | 0.00 | 0.05 | 0.05 | 83 | 1008.6 |
| 20260509235044 | 64 | 130 | 0.0 | 0.0 | 0.00 | 0.05 | 0.05 | 81 | 1008.2 |
| 20260509234540 | 64 | 130 | 0.0 | 0.0 | 0.00 | 0.05 | 0.05 | 80 | 1008.4 |
| 20260509234038 | 64 | 130 | 0.0 | 0.0 | 0.00 | 0.05 | 0.05 | 80 | 1008.1 |
| 20260509233536 | 64 | 130 | 0.0 | 0.0 | 0.00 | 0.05 | 0.05 | 79 | 1008.2 |
| 20260509233033 | 65 | 130 | 0.0 | 0.0 | 0.00 | 0.05 | 0.05 | 80 | 1008.1 |
| 20260509232529 | 66 | 130 | 0.0 | 0.0 | 0.00 | 0.05 | 0.05 | 79 | 1008.2 |
| 20260509232026 | 65 | 130 | 0.0 | 0.0 | 0.00 | 0.05 | 0.05 | 76 | 1007.9 |
| 20260509231522 | 65 | 130 | 0.0 | 0.0 | 0.00 | 0.05 | 0.05 | 76 | 1008.0 |
| 20260509231021 | 65 | 129 | 0.0 | 0.0 | 0.00 | 0.05 | 0.05 | 77 | 1008.2 |
| 20260509230517 | 66 | 129 | 0.0 | 0.0 | 0.00 | 0.05 | 0.05 | 76 | 1008.1 |
| 20260509230015 | 66 | 129 | 0.0 | 0.0 | 0.00 | 0.05 | 0.05 | 76 | 1008.1 |
| 20260509225509 | 66 | 129 | 0.0 | 0.0 | 0.00 | 0.05 | 0.05 | 75 | 1008.1 |
| 20260509225005 | 66 | 128 | 0.0 | 0.0 | 0.00 | 0.05 | 0.05 | 74 | 1007.9 |
| 20260509224501 | 66 | 122 | 0.0 | 0.0 | 0.00 | 0.05 | 0.05 | 73 | 1008.2 |
| 20260509223958 | 66 | 109 | 0.0 | 0.0 | 0.00 | 0.05 | 0.05 | 72 | 1008.1 |
| 20260509223454 | 66 | 126 | 0.0 | 0.0 | 0.00 | 0.05 | 0.05 | 72 | 1008.2 |
| 20260509222952 | 66 | 138 | 0.0 | 0.0 | 0.00 | 0.05 | 0.05 | 71 | 1008.1 |
| 20260509222447 | 67 | 100 | 0.0 | 0.0 | 0.00 | 0.05 | 0.05 | 71 | 1008.1 |
| 20260509221944 | 67 | 114 | 0.0 | 0.0 | 0.00 | 0.05 | 0.05 | 70 | 1008.0 |
| 20260509221440 | 67 | 84 | 0.0 | 0.0 | 0.00 | 0.05 | 0.05 | 70 | 1008.0 |
| 20260509220936 | 67 | 103 | 0.0 | 0.0 | 0.00 | 0.05 | 0.05 | 71 | 1008.3 |
| 20260509220432 | 67 | 92 | 0.0 | 0.0 | 0.00 | 0.05 | 0.05 | 71 | 1008.2 |
| 20260509215928 | 68 | 100 | 0.0 | 0.0 | 0.00 | 0.05 | 0.05 | 71 | 1008.2 |
| 20260509215424 | 68 | 124 | 0.0 | 0.0 | 0.00 | 0.05 | 0.05 | 70 | 1008.1 |
| 20260509214921 | 68 | 122 | 0.0 | 0.0 | 0.00 | 0.05 | 0.05 | 71 | 1008.1 |
| 20260509214419 | 68 | 120 | 0.0 | 0.0 | 0.00 | 0.05 | 0.05 | 71 | 1008.1 |
| 20260509213915 | 68 | 135 | 0.0 | 0.0 | 0.00 | 0.05 | 0.05 | 72 | 1008.3 |
| 20260509213410 | 68 | 110 | 0.0 | 0.0 | 0.00 | 0.05 | 0.05 | 72 | 1008.2 |
| 20260509212909 | 68 | 112 | 0.0 | 0.0 | 0.00 | 0.05 | 0.05 | 73 | 1008.0 |
| 20260509212406 | 71 | 125 | 0.0 | 0.0 | 0.00 | 0.05 | 0.05 | 71 | 1008.2 |
| 20260509211902 | 71 | 161 | 0.0 | 0.0 | 0.00 | 0.05 | 0.05 | 68 | 1008.0 |
| 20260509211358 | 71 | 123 | 0.0 | 0.0 | 0.00 | 0.05 | 0.05 | 68 | 1007.9 |
| 20260509210854 | 73 | 149 | 0.0 | 0.0 | 0.00 | 0.05 | 0.05 | 70 | 1007.7 |
| 20260509210352 | 73 | 138 | 0.0 | 0.0 | 0.00 | 0.05 | 0.05 | 69 | 1007.9 |
| 20260509205852 | 72 | 157 | 0.0 | 0.0 | 0.00 | 0.05 | 0.05 | 68 | 1007.8 |
| 20260509205346 | 72 | 143 | 0.0 | 0.0 | 0.00 | 0.05 | 0.05 | 70 | 1007.7 |
| 20260509204843 | 71 | 126 | 0.0 | 0.0 | 0.00 | 0.05 | 0.05 | 70 | 1007.7 |
| 20260509204339 | 71 | 142 | 0.0 | 0.0 | 0.00 | 0.05 | 0.05 | 72 | 1008.0 |
| 20260509203836 | 70 | 140 | 0.0 | 0.0 | 0.00 | 0.05 | 0.05 | 75 | 1008.0 |
| 20260509203332 | 69 | 148 | 0.0 | 0.0 | 0.00 | 0.05 | 0.05 | 71 | 1007.8 |
| 20260509202829 | 69 | 150 | 0.0 | 0.0 | 0.00 | 0.05 | 0.05 | 75 | 1008.1 |
| 20260509202325 | 69 | 179 | 0.0 | 0.0 | 0.00 | 0.05 | 0.05 | 75 | 1008.0 |
| 20260509201825 | 68 | 170 | 0.0 | 0.0 | 0.00 | 0.05 | 0.05 | 78 | 1008.2 |
| 20260509201321 | 67 | 135 | 0.0 | 0.0 | 0.00 | 0.05 | 0.05 | 81 | 1008.4 |
| 20260509200818 | 66 | 128 | 0.0 | 0.0 | 0.00 | 0.05 | 0.05 | 81 | 1008.6 |
| 20260509200313 | 66 | 142 | 0.0 | 0.0 | 0.00 | 0.05 | 0.05 | 82 | 1008.4 |
| 20260509195810 | 66 | 134 | 0.0 | 0.0 | 0.00 | 0.05 | 0.05 | 83 | 1008.3 |
| 20260509195306 | 67 | 142 | 0.0 | 0.0 | 0.00 | 0.05 | 0.05 | 84 | 1008.6 |
| 20260509194805 | 66 | 143 | 0.0 | 0.0 | 0.00 | 0.05 | 0.05 | 83 | 1008.7 |
| 20260509194301 | 67 | 135 | 0.0 | 0.0 | 0.00 | 0.05 | 0.05 | 84 | 1008.7 |
| 20260509193758 | 66 | 164 | 0.0 | 0.0 | 0.00 | 0.05 | 0.05 | 84 | 1008.7 |
| 20260509193258 | 67 | 134 | 0.0 | 0.0 | 0.00 | 0.05 | 0.05 | 86 | 1008.8 |
| 20260509192754 | 64 | 143 | 0.0 | 0.0 | 0.00 | 0.05 | 0.05 | 88 | 1008.5 |
| 20260509192249 | 64 | 108 | 0.0 | 0.0 | 0.00 | 0.05 | 0.05 | 91 | 1008.8 |
| 20260509191745 | 63 | 139 | 0.0 | 0.0 | 0.05 | 0.05 | 0.05 | 93 | 1008.9 |
| 20260509191242 | 63 | 123 | 0.0 | 0.0 | 0.12 | 0.05 | 0.05 | 93 | 1008.9 |
| 20260509190738 | 63 | 143 | 0.0 | 0.0 | 0.12 | 0.04 | 0.04 | 93 | 1009.2 |
| 20260509190235 | 63 | 134 | 0.0 | 0.0 | 0.12 | 0.03 | 0.03 | 92 | 1009.2 |
| 20260509185732 | 63 | 140 | 0.0 | 0.0 | 0.07 | 0.02 | 0.02 | 91 | 1009.4 |
| 20260509185228 | 63 | 139 | 0.0 | 0.0 | 0.00 | 0.01 | 0.01 | 90 | 1009.5 |
| 20260509184726 | 63 | 139 | 0.0 | 0.0 | 0.00 | 0.01 | 0.01 | 89 | 1009.3 |
| 20260509184223 | 63 | 141 | 0.0 | 0.0 | 0.00 | 0.01 | 0.01 | 87 | 1009.3 |
| 20260509183719 | 63 | 130 | 0.0 | 0.0 | 0.00 | 0.01 | 0.01 | 86 | 1009.3 |
| 20260509183215 | 63 | 124 | 0.0 | 0.0 | 0.07 | 0.01 | 0.01 | 86 | 1009.4 |
| 20260509182710 | 64 | 133 | 0.0 | 0.0 | 0.07 | 0.01 | 0.01 | 86 | 1009.3 |
| 20260509182208 | 65 | 138 | 0.0 | 0.0 | 0.00 | 0.00 | 0.00 | 82 | 1009.5 |
| 20260509181706 | 65 | 139 | 0.0 | 0.0 | 0.00 | 0.00 | 0.00 | 77 | 1009.5 |
| 20260509181203 | 65 | 147 | 0.0 | 0.0 | 0.00 | 0.00 | 0.00 | 73 | 1009.7 |
| 20260509180700 | 65 | 148 | 0.0 | 0.0 | 0.00 | 0.00 | 0.00 | 73 | 1009.8 |
| 20260509180156 | 65 | 132 | 0.0 | 0.0 | 0.00 | 0.00 | 0.00 | 73 | 1009.8 |
| 20260509175652 | 65 | 170 | 0.0 | 0.0 | 0.00 | 0.00 | 0.00 | 75 | 1009.7 |
| 20260509175149 | 65 | 137 | 0.0 | 0.0 | 0.00 | 0.00 | 0.00 | 74 | 1009.7 |
| 20260509174645 | 65 | 146 | 0.0 | 0.0 | 0.00 | 0.00 | 0.00 | 75 | 1009.5 |
| 20260509174145 | 65 | 136 | 0.0 | 0.0 | 0.00 | 0.00 | 0.00 | 74 | 1009.7 |
| 20260509173642 | 65 | 151 | 0.0 | 0.0 | 0.00 | 0.00 | 0.00 | 75 | 1009.7 |
| 20260509173137 | 65 | 120 | 0.0 | 0.0 | 0.00 | 0.00 | 0.00 | 75 | 1009.5 |
| 20260509172634 | 66 | 149 | 0.0 | 0.0 | 0.00 | 0.00 | 0.00 | 75 | 1009.8 |
| 20260509172130 | 66 | 137 | 0.0 | 0.0 | 0.00 | 0.00 | 0.00 | 75 | 1009.6 |
| 20260509171626 | 67 | 121 | 0.0 | 0.0 | 0.00 | 0.00 | 0.00 | 73 | 1009.7 |
| 20260509171123 | 67 | 174 | 0.0 | 0.0 | 0.00 | 0.00 | 0.00 | 71 | 1009.7 |
| 20260509170619 | 67 | 135 | 0.0 | 0.0 | 0.00 | 0.00 | 0.00 | 70 | 1009.5 |
| 20260509170115 | 68 | 133 | 0.0 | 0.0 | 0.00 | 0.00 | 0.00 | 70 | 1009.6 |
| 20260509165614 | 68 | 126 | 0.0 | 0.0 | 0.00 | 0.00 | 0.00 | 69 | 1009.8 |
| 20260509165110 | 68 | 132 | 0.0 | 0.0 | 0.00 | 0.00 | 0.00 | 70 | 1009.5 |
| 20260509164606 | 68 | 138 | 0.0 | 0.0 | 0.00 | 0.00 | 0.00 | 69 | 1009.9 |
| 20260509164101 | 68 | 129 | 0.0 | 0.0 | 0.00 | 0.00 | 0.00 | 68 | 1009.8 |
| 20260509163600 | 68 | 127 | 0.0 | 0.0 | 0.00 | 0.00 | 0.00 | 67 | 1009.7 |
| 20260509163055 | 69 | 138 | 0.0 | 0.0 | 0.00 | 0.00 | 0.00 | 66 | 1009.7 |
| 20260509162552 | 69 | 135 | 0.0 | 0.0 | 0.00 | 0.00 | 0.00 | 65 | 1009.9 |
| 20260509162048 | 69 | 135 | 0.0 | 0.0 | 0.00 | 0.00 | 0.00 | 67 | 1009.9 |
| 20260509161544 | 69 | 134 | 0.0 | 0.0 | 0.00 | 0.00 | 0.00 | 68 | 1009.9 |
| 20260509161039 | 69 | 148 | 0.0 | 0.0 | 0.00 | 0.00 | 0.00 | 67 | 1010.1 |
| 20260509160535 | 70 | 189 | 0.0 | 0.0 | 0.00 | 0.00 | 0.00 | 65 | 1010.0 |
| 20260509160031 | 71 | 116 | 0.0 | 0.0 | 0.00 | 0.00 | 0.00 | 63 | 1010.1 |
| 20260509155527 | 70 | 170 | 0.0 | 0.0 | 0.00 | 0.00 | 0.00 | 64 | 1010.1 |
| 20260509155023 | 71 | 138 | 0.0 | 0.0 | 0.00 | 0.00 | 0.00 | 64 | 1010.0 |
| 20260509154520 | 71 | 146 | 0.0 | 0.0 | 0.00 | 0.00 | 0.00 | 64 | 1010.2 |
| 20260509154018 | 71 | 149 | 0.0 | 0.0 | 0.00 | 0.00 | 0.00 | 63 | 1009.8 |
| 20260509153515 | 70 | 122 | 0.0 | 0.0 | 0.00 | 0.00 | 0.00 | 65 | 1010.4 |
| 20260509153011 | 70 | 168 | 0.0 | 0.0 | 0.00 | 0.00 | 0.00 | 66 | 1010.4 |
| 20260509152507 | 69 | 153 | 0.0 | 0.0 | 0.00 | 0.00 | 0.00 | 67 | 1010.3 |
| 20260509152004 | 68 | 119 | 0.0 | 0.0 | 0.00 | 0.00 | 0.00 | 67 | 1010.6 |
| 20260509151500 | 68 | 103 | 0.0 | 0.0 | 0.00 | 0.00 | 0.00 | 66 | 1010.6 |
| 20260509150959 | 67 | 140 | 0.0 | 0.0 | 0.00 | 0.00 | 0.00 | 68 | 1010.7 |
| 20260509150455 | 67 | 137 | 0.0 | 0.0 | 0.00 | 0.00 | 0.00 | 68 | 1010.9 |